Location: Caltech
(34.1382°N, 118.1253°W)
Time: 01:22:15
(UTC-07:00)

CZ-4B DEB - Visible Passes

Search period start: 26 July 2016 00:00
Search period end: 05 August 2016 00:00
Orbit: 842 x 862 km, 98.9° (Epoch: 24 July)

Date Brightness Start Highest point End Pass type
(mag) Time Alt. Az. Time Alt. Az. Time Alt. Az.
26 Jul 6.4 03:28:30 10° NE 03:32:18 19° E 03:36:04 10° SE visible
26 Jul 4.6 05:07:53 10° N 05:13:12 47° WNW 05:18:26 10° SW visible
27 Jul 6.7 03:17:56 10° ENE 03:20:49 14° E 03:23:40 10° SE visible
27 Jul 4.3 04:56:24 10° N 05:01:51 61° WNW 05:07:16 10° SSW visible
28 Jul 6.9 03:08:18 10° E 03:09:18 10° E 03:10:17 10° ESE visible
28 Jul 4.2 04:44:57 10° N 04:50:30 78° WNW 04:56:00 10° SSW visible
29 Jul 4.3 04:33:35 10° NNE 04:39:08 82° ESE 04:44:25 11° SSW visible
30 Jul 4.6 04:22:15 10° NNE 04:27:45 64° ESE 04:32:50 12° S visible
31 Jul 5.0 04:10:59 10° NNE 04:16:20 49° E 04:21:15 12° S visible
01 Aug 5.4 03:59:48 10° NNE 04:04:56 38° E 04:09:39 12° SSE visible
02 Aug 5.8 03:48:42 10° NE 03:53:29 30° E 03:58:05 11° SSE visible
02 Aug 5.1 05:29:18 10° N 05:34:04 30° WNW 05:38:48 10° SW visible
03 Aug 6.2 03:37:43 10° NE 03:42:00 23° E 03:46:17 10° SSE visible
03 Aug 4.8 05:17:41 10° N 05:22:46 39° WNW 05:27:48 10° SW visible
04 Aug 6.5 03:26:54 10° NE 03:30:32 18° E 03:34:08 10° SE visible
04 Aug 4.5 05:06:09 10° N 05:11:27 49° WNW 05:16:42 10° SW visible
